Probability
0 0 0 0 0 0 0 0 0 0 0 0 0 0 0 0 0 0 0 0 0 0 0 0 0 0 0 0 0 0 0 0 0 0 0 0 0 0 0 0 0 0 0 0
0 0 0 0 0 0 0 0 0 0 0 0 0 0 0 0 0 0 0 0 0 0 0 0 0 0 0 0 0 0 0 0 0 0 0 0 0 0 0 0 0 0 0 0
0 0 0 0 0 0 0 0 0 0 0 0 0 0 0 0 0 0 0 0 0 0 0 0 0 0 0 0 0 0 0 0 0 0 0 0 0 0 0 0 0 0 0 0
0 0 0 0 0 0 0 0 0 0 0 0 0 0 0 0 0 0 0 0 0 0 0 0 0 0 0 0 0 0 0 0 0 0 0 0 0 0 0 0 0 0 0 0
0 0 0 0 0 0 0 0 0 0 0 0 0 0 0 0 0 0 0 0 0 0 0 0 0 0 0 0 0 0 0 0 0 0 0 0 0 0 0 0 0 0 0 0
0 0 0 0 0 0 0 0 0 0 0 0 0 0 0 0 0 0 0 0 0 0 0 0 0 0 0 0 0 0 0 0 0 0 0 0 0 0 0 0 0 0 0 0
0 0 0 0 0 0 0 0 0 0 0 0 0 0 0 0 0 0 0 0 0 0 0 0 0 0 0 0 0 0 0 0 0 0 0 0 0 0 0 0 0 0 0 0
0 0 0 0 0 0 0 0 0 0 0 0 0 0 0 0 0 0 0 0 0 0 0 0 0 0 0 0 0 0 0 0 0 0 0 0 0 0 0 0 0 0 0 0
0 0 0 0 0 0 0 0 0 0 0 0 0 0 0 0 0 0 0 0 0 0 0 0 0 0 0 0 0 0 0 0 0 0 0 0 0 0 0 0 0 0 0 0
0 0 0 0 0 0 0 0 0 0 0 0 0 0 0 0 0 0 0 0 0 0 0 0 0 0 0 0 0 0 0 0 0 0 0 0 0 0 0 0 0 0 0 0
0 0 0 0 0 0 0 0 0 0 0 0 0 0 0 0 0 0 0 0 0 0 0 0 0 0 0 0 0 0 0 0 0 0 0 0 0 0 0 0 0 0 0 0
0 0 0 0 0 0 0 0 0 0 0 0 0 0 0 0 0 0 0 0 0 0 0 0 0 0 0 0 0 0 0 0 0 0 0 0 0 0 0 0 0 0 0 0
0 0 0 0 0 0 0 0 0 0 0 0 0 0 0 0 0 0 0 0 0 0 0 0 0 0 0 0 0 0 0 0 0 0 0 0 0 0 0 0 0 0 0 0
0 0 0 0 0 0 0 0 0 0 0 0 0 0 0 0 0 0 0 0 0 0 0 0 0 0 0 0 0 0 0 0 0 0 0 0 0 0 0 0 0 0 0 0
0 0 0 0 0 0 0 0 0 0 0 0 0 0 0 0 0 0 0 0 0 0 0 0 0 0 0 0 0 0 0 0 0 0 0 0 0 0 0 0 0 0 0 0
0 0 0 0 0 0 0 0 0 0 0 0 0 0 0 0 0 0 0 0 0 0 0 0 0 0 0 0 0 0 0 0 0 0 0 0 0 0 0 0 0 0 0 0
0 0 0 0 0 0 0 0 0 0 0 0 0 0 0 0 0 0 0 0 0 0 0 0 0 0 0 0 0 0 0 0 0 0 0 0 0 0 0 0 0 0 0 0
0 0 0 0 0 0 0 0 0 0 0 0 0 0 0 0 0 0 0 0 0 0 0 0 0 0 0 0 0 0 0 0 0 0 0 0 0 0 0 0 0 0 0 0
0 0 0 0 0 0 0 0 0 0 0 0 0 0 0 0 0 0 0 0 0 0 0 0 0 0 0 0 0 0 0 0 0 0 0 0 0 0 0 0 0 0 0 0
0 0 0 0 0 0 0 0 0 0 0 0 0 0 0 0 0 0 0 0 0 0 0 0 0 0 0 0 0 0 0 0 0 0 0 0 0 0 0 0 0 0 0 0
0 0 0 0 0 0 0 0 0 0 0 0 0 0 0 0 0 0 0 0 0 0 0 0 0 0 0 0 0 0 0 0 0 0 0 0 0 0 0 0 0 0 0 0
0 0 0 0 0 0 0 0 0 0 0 0 0 0 0 0 0 0 0 0 0 0 0 0 0 0 0 0 0 0 0 0 0 0 0 0 0 0 0 0 0 0 0 0
0 0 0 0 0 0 0 0 0 0 0 0 0 0 0 0 0 0 0 0 0 0 0 0 0 0 0 0 0 0 0 0 0 0 0 0 0 0 0 0 0 0 0 0
0 0 0 0 0 0 0 0 0 0 0 0 0 0 0 0 0 0 0 0 0 0 0 0 0 0 0 0 0 0 0 0 0 0 0 0 0 0 0 0 0 0 0 0
0 0 0 0 0 0 0 0 0 0 0 0 0 0 0 0 0 0 0 0 0 0 0 0 0 0 0 0 0 0 0 0 0 0 0 0 0 0 0 0 0 0 0 0
0 0 0 0 0 0 0 0 0 0 0 0 0 0 0 0 0 0 0 0 0 0 0 0 0 0 0 0 0 0 0 0 0 0 0 0 0 0 0 0 0 0 0 0
Wind_Speed
2 2 4 8 8 5 2 4 8 9 4 6 12 20 24 14 10 15 15 13 15 18 13 9 13 13 12 13 15 16 16 13 11 6 6 5 6 5 5 7 8 9 8 8
3 5 9 3 3 3 3 5 8 8 2 5 8 17 20 13 12 16 16 15 16 14 9 10 12 14 17 17 17 17 18 16 15 11 7 4 4 4 5 5 8 9 9 9
6 6 1 3 3 3 4 6 6 6 4 3 7 14 10 8 5 7 10 11 10 14 14 11 13 15 16 18 20 18 19 18 16 12 7 4 3 2 4 6 7 9 10 10
6 5 2 3 4 5 7 6 5 3 3 6 3 10 13 7 9 8 10 10 13 13 12 11 13 14 18 20 16 17 17 17 15 15 13 13 11 11 11 7 7 8 9 9
6 3 4 6 6 7 7 0 0 1 2 5 3 5 15 7 9 10 9 10 12 12 12 13 15 17 17 15 14 15 15 16 16 17 18 16 14 10 5 5 7 8 8 9
7 3 4 5 0 2 2 3 3 4 3 5 4 5 12 7 8 8 8 7 8 9 10 12 11 10 11 10 12 13 15 17 16 18 18 19 18 12 9 9 9 8 6 7
7 4 1 2 2 2 2 3 5 6 3 7 2 4 14 15 9 8 11 11 9 7 8 9 10 11 12 13 14 14 16 17 17 18 19 20 18 16 17 14 13 10 8 8
4 7 2 2 4 3 3 5 4 4 5 7 3 9 14 13 8 8 10 10 10 9 8 9 10 10 11 12 13 14 17 18 17 19 19 17 15 13 12 13 11 12 10 10
4 6 1 1 1 6 3 3 3 3 3 5 8 10 15 10 7 5 6 8 10 10 9 9 8 9 10 11 14 16 16 16 17 18 16 15 16 15 14 12 12 9 9 8
6 5 3 1 1 0 2 5 4 2 3 7 8 7 8 10 11 11 10 10 10 9 9 9 8 8 8 9 9 11 14 15 14 14 15 14 15 16 13 12 13 12 12 10
4 4 5 2 5 6 4 3 4 2 3 4 7 10 9 10 11 11 12 11 10 11 11 10 8 7 7 7 8 10 12 12 12 14 14 14 14 14 13 14 14 13 12 12
3 4 4 7 3 3 6 6 7 4 6 6 5 14 11 10 10 9 11 12 11 11 11 10 9 6 5 6 7 9 10 12 13 12 13 14 13 13 15 16 15 14 13 13
4 4 4 7 3 1 2 4 5 4 2 5 6 15 7 8 10 10 11 12 12 12 11 9 7 6 6 6 7 8 10 11 10 10 12 13 14 16 17 17 14 14 14 13
6 5 7 9 9 4 5 5 6 6 6 8 14 21 21 20 18 17 14 11 11 11 10 9 8 7 6 6 6 8 9 9 10 11 13 16 17 17 16 14 14 14 14 14
4 5 7 9 9 6 7 10 10 13 14 14 20 20 26 21 15 13 11 11 11 11 10 9 8 7 6 5 6 7 8 9 10 12 15 17 14 13 12 13 13 13 13 14
3 4 3 7 9 9 9 14 18 18 16 16 20 24 21 12 8 8 9 9 9 10 10 9 9 8 8 7 7 7 9 9 10 13 15 12 11 11 12 13 12 13 13 12
6 6 4 8 5 5 11 15 17 12 10 10 14 15 8 9 11 10 9 8 8 9 10 10 9 9 9 8 7 8 8 7 10 12 12 11 11 12 13 13 13 14 14 13
8 6 3 4 1 12 12 5 10 11 13 12 11 11 10 10 10 9 6 4 8 9 9 10 9 9 8 7 7 6 6 7 9 11 11 10 11 12 12 13 14 14 13 13
7 8 4 3 6 13 10 9 7 7 9 7 7 7 7 7 6 5 3 4 6 8 10 10 10 9 9 9 7 6 6 6 8 11 11 11 12 13 13 15 15 13 12 12
3 4 5 5 6 11 10 5 0 1 7 4 2 4 6 6 8 8 8 9 11 10 9 9 9 8 10 9 6 6 8 8 11 11 11 10 11 13 15 15 14 12 11 12
3 3 5 7 9 13 10 4 1 3 7 2 3 6 6 5 8 10 11 11 10 10 11 10 9 8 10 8 6 8 9 11 11 9 8 9 11 13 13 11 10 9 10 10
8 6 7 6 7 13 6 4 6 8 5 6 8 8 9 10 10 10 10 10 10 10 10 9 8 9 10 7 6 9 12 11 8 7 8 9 10 10 9 10 10 10 11 10
9 10 8 12 13 8 3 7 7 6 9 10 9 10 10 11 11 11 10 9 10 10 10 9 9 10 11 8 6 10 12 10 8 8 9 8 8 9 9 10 10 10 10 9
7 6 7 10 12 11 10 10 11 12 13 11 10 10 9 11 11 10 9 8 9 9 10 9 9 11 12 11 9 10 11 9 9 10 9 6 7 8 8 8 9 10 11 11
7 5 7 14 14 11 9 10 10 10 10 10 10 8 7 7 7 6 7 8 9 9 8 8 9 11 14 12 12 11 10 9 9 9 8 6 7 8 9 10 10 11 11 13
10 13 14 19 13 12 13 9 9 10 9 9 7 5 4 3 5 7 7 8 9 10 10 10 11 12 13 13 13 12 9 8 8 9 7 6 5 6 7 7 8 17 16 20
Wind_Direction
42 61 237 228 211 218 241 246 265 264 223 197 243 261 270 264 226 242 244 238 235 238 237 206 202 199 196 198 200 201 201 195 181 174 179 185 204 202 202 204 201 197 195 192
16 266 244 221 184 205 233 266 273 284 215 212 277 276 271 263 237 234 237 235 234 239 233 209 199 197 201 204 204 204 204 198 194 194 178 174 174 190 200 200 201 199 196 193
219 248 188 162 186 207 239 227 250 272 319 272 308 295 287 290 255 254 240 236 232 229 232 217 204 204 204 208 206 205 205 201 198 186 163 145 137 151 178 198 203 201 196 194
248 263 207 213 232 194 261 244 233 276 321 300 352 301 294 290 299 269 250 234 235 232 229 219 208 207 209 213 206 206 202 201 195 185 187 187 194 202 201 191 193 192 193 194
266 231 202 225 235 189 228 342 197 299 249 300 267 246 285 313 293 281 266 243 237 230 223 223 215 215 215 209 202 203 201 201 195 194 198 201 210 210 179 176 185 192 195 197
251 256 208 215 113 163 141 61 51 53 69 289 241 196 282 269 252 286 298 283 259 246 230 231 225 216 213 200 198 197 200 204 198 198 202 206 210 199 184 189 192 195 196 200
317 303 247 150 115 40 92 68 350 339 343 261 199 215 255 260 250 253 277 291 293 273 246 236 226 217 213 202 200 198 200 206 201 201 206 210 211 203 202 198 198 194 195 201
309 304 242 197 194 188 179 154 176 256 266 288 270 239 258 271 283 269 269 280 290 283 263 248 235 223 218 208 201 198 204 208 202 204 209 211 208 206 209 204 197 197 200 201
213 272 304 159 195 153 162 204 178 169 282 282 277 288 296 294 319 318 302 298 293 290 280 264 252 232 221 211 205 203 205 209 206 207 207 208 208 209 209 202 199 198 197 192
179 261 293 2 94 36 173 160 110 146 280 286 288 276 261 296 306 317 320 310 301 301 292 278 263 246 230 219 208 200 205 210 209 205 207 209 209 211 208 199 200 200 196 191
177 215 295 311 211 205 148 161 161 167 197 226 280 269 239 248 270 288 296 297 295 295 290 283 272 255 233 216 202 203 206 209 208 208 208 212 208 207 205 206 205 201 195 191
160 139 264 267 241 175 179 192 161 186 243 207 244 269 256 257 273 278 283 290 292 287 285 282 278 272 247 225 211 209 209 212 214 208 207 213 210 203 207 210 206 197 195 193
138 121 340 336 345 88 227 216 195 189 193 207 225 268 273 288 292 288 285 289 293 296 298 299 294 281 261 241 222 216 216 219 212 204 209 212 213 210 212 212 204 197 194 192
136 172 198 228 244 241 232 231 196 187 222 241 235 262 283 288 294 301 305 304 302 301 301 304 302 294 276 251 230 224 226 218 211 208 213 218 217 216 215 210 202 197 194 191
132 228 240 253 267 267 244 246 227 215 223 239 262 267 276 286 298 300 305 310 312 313 315 314 308 302 294 272 247 233 232 219 210 213 220 225 222 216 212 207 202 197 194 194
152 226 254 263 254 252 254 247 246 245 240 243 262 272 274 289 298 302 306 308 313 314 314 314 311 306 299 281 260 242 235 221 210 219 227 226 218 213 210 207 200 195 194 191
196 197 238 267 269 296 263 233 232 229 217 213 242 257 299 319 317 312 310 313 311 308 306 306 304 296 290 282 263 251 242 221 215 226 230 222 214 214 211 205 201 199 195 189
178 173 214 280 347 241 246 236 225 236 248 234 249 275 299 293 293 285 275 299 316 313 308 304 299 296 292 285 277 265 249 227 225 232 232 221 212 215 209 205 206 202 195 192
179 166 197 221 252 271 287 267 219 216 268 249 243 271 288 297 313 293 278 311 300 296 293 290 289 289 291 291 288 280 266 245 239 240 236 224 213 212 207 208 208 203 196 196
110 155 182 194 224 254 251 255 240 132 281 272 212 296 307 339 334 299 310 316 309 303 296 295 297 298 296 295 295 281 272 258 251 247 239 224 213 212 213 212 207 200 197 197
135 163 200 217 238 264 261 282 124 211 251 296 313 308 301 281 260 276 296 299 296 297 297 297 298 295 291 295 295 283 279 270 265 256 240 225 215 215 216 212 203 195 195 192
190 193 208 202 221 255 250 163 203 238 285 305 304 297 290 282 282 290 296 295 298 300 300 301 301 298 299 301 294 286 282 281 277 261 246 231 219 212 210 204 199 192 192 191
210 202 202 204 225 245 219 223 253 283 290 291 287 286 289 292 296 300 299 302 304 302 302 304 303 302 303 301 288 284 288 291 284 270 255 239 220 209 201 197 196 191 192 195
237 218 231 255 257 258 265 268 273 274 276 282 284 288 288 289 294 299 302 303 305 303 305 306 309 307 305 306 296 282 286 288 282 274 263 240 221 213 204 199 196 196 197 198
226 229 245 261 271 280 258 257 269 279 284 289 290 288 289 295 300 299 299 300 300 301 300 302 302 300 299 302 299 294 289 286 281 275 264 240 221 211 206 207 207 204 208 204
208 231 248 261 265 272 283 287 288 288 288 289 293 302 311 306 295 297 296 296 298 301 302 303 301 298 300 301 299 298 292 284 279 280 267 243 225 214 209 210 219 224 217 221